Location: Unspecified
(43.4680°N, 87.1740°E)
Time: 14:17:43
(UTC+00:00)

Cosmos 1356 Rocket - Pass Details

Date: 29 July 2021
Orbit: 543 x 597 km, 81.2° (Epoch: 19 September)

Event Time Altitude Azimuth Distance (km) Brightness Sun altitude
Exits shadow 21:42:59 10° 274° (W) 1,829 5.6 -12.2°
Reaches altitude 10° 21:43:03 10° 274° (W) 1,821 5.6 -12.2°
Maximum altitude 21:44:24 11° 294° (WNW) 1,727 5.6 -12.0°
Drops below altitude 10° 21:45:47 10° 315° (NW) 1,820 5.9 -11.8°
Sets 21:49:25 0° 349° (N) 2,717 7.3 -11.3°
